This is the latest recevied weather packets stored in our database for station/object KF0JHJ. If no packets are shown the sender has not sent any weather packets the latest 10 day(s).
| Time | Temp. | Humidity | Pressure | Rain* | Wind** | Luminosity | Snow |
|---|---|---|---|---|---|---|---|
| 1778068544 | 2.22° C | 69% | 1013.7 hPa | - | - | 9 W/m² | - |
| 1778068242 | 2.22° C | 69% | 1013.7 hPa | - | - | 6 W/m² | - |
| 1778067939 | 2.22° C | 70% | 1013.5 hPa | - | - | 6 W/m² | - |
| 1778067637 | 2.22° C | 72% | 1013.3 hPa | - | - | 5 W/m² | - |
| 1778067335 | 1.67° C | 72% | 1013.4 hPa | - | - | 4 W/m² | - |
| 1778067032 | 1.67° C | 73% | 1013.1 hPa | - | - | 2 W/m² | - |
| 1778066728 | 1.67° C | 74% | 1013 hPa | - | - | 1 W/m² | - |
| 1778066426 | 1.67° C | 75% | 1013.1 hPa | - | - | 1 W/m² | - |
| 1778066124 | 1.67° C | 76% | 1013.2 hPa | - | - | 0 W/m² | - |
| 1778065820 | 1.67° C | 75% | 1013 hPa | - | - | 0 W/m² | - |
| 1778065518 | 1.67° C | 75% | 1013 hPa | - | - | 0 W/m² | - |
| 1778065215 | 1.67° C | 75% | 1012.8 hPa | - | - | 0 W/m² | - |
| 1778064911 | 1.11° C | 75% | 1012.8 hPa | - | - | 0 W/m² | - |
| 1778064609 | 1.67° C | 76% | 1012.8 hPa | - | - | 0 W/m² | - |
| 1778064307 | 1.11° C | 76% | 1013 hPa | - | - | 0 W/m² | - |
| 1778064005 | 1.11° C | 77% | 1013.4 hPa | - | - | 0 W/m² | - |
| 1778063701 | 1.11° C | 78% | 1013.1 hPa | - | - | 0 W/m² | - |
| 1778063398 | 0.56° C | 80% | 1013.3 hPa | - | - | 0 W/m² | - |
| 1778063097 | 0° C | 80% | 1013.2 hPa | - | - | 0 W/m² | - |
| 1778062793 | 0° C | 81% | 1013.2 hPa | - | - | 0 W/m² | - |
| 1778062490 | 0° C | 82% | 1013.3 hPa | - | - | 0 W/m² | - |
| 1778062187 | 0.56° C | 79% | 1013.1 hPa | - | - | 0 W/m² | - |
| 1778061885 | 0.56° C | 79% | 1013 hPa | - | - | 0 W/m² | - |
| 1778061583 | 0.56° C | 79% | 1012.7 hPa | - | - | 0 W/m² | - |
| 1778061281 | 0.56° C | 78% | 1013 hPa | - | - | 0 W/m² | - |
* Rain since midnight (hover to see other rain measurements)
** Current wind speed in m/s (hover to see current wind gust speed)